GEESAT 3-07

导读

GEESAT 3-07是中国于2024年9月5日发射的吉利星座低轨卫星,隶属于吉利科技集团GEESAT星座系统,作为中国商业航天成果,该卫星是吉利完成一期组网后的卫星补充,参与构建全球低轨卫星互联网与高精度时空服务体系。卫星可面向全球提供高稳定卫星物联通信服务,也可支撑星基高精定位能力,服务智慧出行、应急通信等多元领域,助力中国低轨商业星座生态建设。

基本信息
目录编号:
61017
目录名称:
GEESAT 3-07
国际标识:
2024-159G
轨道中心:
EARTH
卫星名称:
GEESAT 3-07
卫星全名:
GEESAT 3-07
卫星状态:
在轨 (已飞行690 天)
发射日期:
2024-09-05 UTC
国别 :
中国 (CN)
星等 :
--
轨道信息
数据来源 国际轨道数据 AOE轨道数据
星历时间 2026-07-27T21:32:48+0800
8小时前
查看轨道信息
2026-07-25T05:00:00+0800
3天前
查看轨道信息
半长轴 6993.761km 6993.773km
偏心率 0.0011225 0.0011163
轨道倾角 49.993° 49.992°
近地点辐角 190.256° 180.805°
升交点赤经 255.637° 268.116°
平近点角 169.815° 197.500°
近地点 607.773km 607.828km
远地点 623.475km 623.444km
周期 97.012分钟 97.012分钟
每日圈数 14.84351 14.843474
详细信息
使用方式:
暂无
2D轨道图
3D轨道图
轨道高度分析图
轨道倾角分析图
轨道综合分析图
查看轨道综合分析图